Overview Statistics Trail Chart Weather Telemetry Raw packets
 

This is the latest recevied weather packets stored in our database for station/object PP5CFL-13. If no packets are shown the sender has not sent any weather packets the latest 10 day(s).

<< 106 107 108 109 110 111 112 >>
Time Temp. Humidity Pressure Rain* Wind** Luminosity Snow
1787862453 22.78° C 86% 1014.4 hPa - - - -
1787862154 22.78° C 87% 1014.4 hPa - - - -
1787861853 22.78° C 87% 1014.3 hPa - - - -
1787861553 22.78° C 87% 1014.3 hPa - - - -
1787861253 22.78° C 88% 1014.3 hPa - - - -
1787860953 23.33° C 85% 1014.2 hPa - - - -
1787860653 22.78° C 86% 1014.2 hPa - - - -
1787860353 22.78° C 88% 1014.2 hPa - - - -
1787860053 22.78° C 87% 1014.1 hPa - - - -
1787859753 22.78° C 87% 1014.1 hPa - - - -
1787859453 22.78° C 86% 1013.9 hPa - - - -
1787859153 23.33° C 84% 1014 hPa - - - -
1787858853 23.33° C 83% 1013.8 hPa - - - -
1787858553 23.33° C 82% 1013.9 hPa - - - -
1787858253 23.33° C 82% 1014.1 hPa - - - -
1787857953 23.33° C 82% 1014 hPa - - - -
1787857653 22.78° C 84% 1014 hPa - - - -
1787857353 23.33° C 83% 1014 hPa - - - -
1787857053 23.33° C 82% 1014 hPa - - - -
1787856753 23.89° C 81% 1013.9 hPa - - - -
1787856453 23.33° C 83% 1013.9 hPa - - - -
1787856153 22.78° C 85% 1014.1 hPa - - - -
1787855853 22.78° C 86% 1014 hPa - - - -
1787855553 22.78° C 87% 1014.1 hPa - - - -
1787855253 22.22° C 89% 1014.1 hPa - - - -

* Rain since midnight (hover to see other rain measurements)
** Current wind speed in m/s (hover to see current wind gust speed)